Zurück zum Katalog

STARLINK-31024

AktivKommunikationVLEO
NORAD 58786·PAYLOAD·🇺🇸 United States

Gestartet Jan 14, 2024 von Vandenberg Space Force Base

Loading…

Nächste Überflüge (nächste 24 Stunden)

TLE

AktuellSource: CelesTrak SupGP

Epoche: Sep 14, 2026, 22:13 UTC

1 58786C 24011X   26257.92618056  .00009561  00000+0  28239-3 0  2575
2 58786  53.1578 211.4606 0001561  90.6344 100.7412 15.34396739    10

Verfolge STARLINK-31024 in Echtzeit mit AllMySat

Download on the App Store